KOSEN 1
1 49402U 21102H   25346.04643716  .00012455  00000-0  52120-3 0  9996
2 49402  97.3478  26.9505 0015621 143.2235 217.0077 15.23594625225499
HO-113
1 50466U 21131B   25346.30296696  .00001176  00000-0  37870-3 0  9993
2 50466  98.5049  74.7261 0003180 308.5120  51.5783 14.41112143208197
SNUGLITE 2
1 52899U 22065F   25345.98195868  .00002316  00000-0  45268-3 0  9991
2 52899  98.1923 126.5188 0006453 248.0295 112.0222 14.63833341183600
UmKA 1 (RS40S)
1 57172U 23091G   25346.28084127  .00010746  00000-0  52763-3 0  9993
2 57172  97.5345  40.7469 0014809  55.0047 305.2574 15.18161802135626
CubeBel-2 (EU11S)
1 57175U 23091K   25346.26150640  .00020495  00000-0  84570-3 0  9991
2 57175  97.5341  43.2106 0012068  57.6330 302.6073 15.24008620135786
RS-38S
1 57189U 23091Z   25346.31344550  .00023254  00000-0  81726-3 0  9993
2 57189  97.5367  47.7099 0008803  24.6030 335.5628 15.29342740136064
SONATE-2
1 59112U 24043Q   25346.13486018  .00036853  00000-0  77931-3 0  9997
2 59112  97.5324 122.3631 0008969 164.2134 195.9396 15.45021217 98884
MO-122
1 60209U 24125G   25346.14132076  .00041842  00000-0  84769-3 0  9991
2 60209  97.2532 196.5131 0014071 180.3109 179.8135 15.46185326 80517
GRBBeta
1 60237U 24128C   25345.82107664  .00007872  00000-0  55100-3 0  9996
2 60237  61.9894 152.7698 0056311  96.4497 264.3011 15.04737572 78058
Curium One
1 60242U 24128H   25345.47031628  .00018328  00000-0  11268-2 0  9993
2 60242  61.9788 148.9046 0055993  93.3182 267.4320 15.08853494 78099
ROBUSTA-3A
1 60243U 24128J   25346.00347834  .00011275  00000-0  71209-3 0  9999
2 60243  61.9861 148.5558 0056069  90.9053 269.8465 15.08196546 78152
CatSat
1 60246U 24125J   25346.15516425  .00047351  00000-0  11415-2 0  9995
2 60246  97.2316 193.5457 0034014 146.3637 213.9779 15.40475906 78435
HYPERVIEW-1G (RS66S)
1 61772U 24199AP  25346.29024339  .00056133  00000-0  10763-2 0  9997
2 61772  97.3212 215.7191 0007937 239.0593 120.9878 15.47791204105542
AO-123
1 61781U 24199AY  25346.28072874  .00016148  00000-0  52439-3 0  9992
2 61781  97.3252 211.7356 0012806 257.5911 102.3898 15.31935066105270
ZIMSAT 2
1 61783U 24199BA  25345.64978112  .00270699  00000-0  19531-2 0  9991
2 61783  97.3091 218.5577 0003430 195.3468 164.7693 15.72731497108839
HADES-R (SO-124)
1 62690U 25009CK  25346.18920265  .00189021  00000-0  24024-2 0  9997
2 62690  97.3872  68.7875 0001081 250.2451 109.8689 15.58745968 50690
HYDRA-T
1 62692U 25009CM  25346.16832093  .00216490  00000-0  25615-2 0  9996
2 62692  97.3876  68.9670 0001237 264.4086  95.7030 15.60547394 50706
JINJUSat 1B
1 63210U 25052A   25346.19561982  .00024640  00000-0  93941-3 0  9992
2 63210  97.4198 238.3542 0005474  48.0357 312.1347 15.26669065 41503
NUSHSAT 1
1 63211U 25052B   25346.25682752  .00028585  00000-0  10547-2 0  9991
2 63211  97.4177 238.5365 0005585  51.5343 308.6396 15.27721611 41526
TEVEL2-4
1 63213U 25052D   25345.66771444  .00025867  00000-0  97575-3 0  9991
2 63213  97.4104 237.5036 0005151  64.7984 295.3789 15.27014963 41420
TEVEL2-5
1 63214U 25052E   25346.26290644  .00026380  00000-0  99610-3 0  9990
2 63214  97.4100 238.0826 0005033  64.7875 295.3885 15.26976849 41514
TEVEL2-6
1 63215U 25052F   25346.20466426  .00026109  00000-0  98745-3 0  9995
2 63215  97.4105 238.0131 0005169  64.9944 295.1831 15.26925922 41502
TEVEL2-1
1 63217U 25052H   25346.24722780  .00025986  00000-0  99242-3 0  9994
2 63217  97.4079 237.8669 0005463  73.2578 286.9260 15.26601749 41502
TEVEL2-3
1 63218U 25052J   25346.18089007  .00026189  00000-0  99954-3 0  9992
2 63218  97.4082 237.8067 0005361  74.1472 286.0358 15.26621388 41497
TEVEL2-2
1 63219U 25052K   25346.24799747  .00026116  00000-0  99734-3 0  9995
2 63219  97.4082 237.8678 0005409  73.3986 286.7847 15.26603033 41509
TEVEL2-9
1 63237U 25052AD  25345.42320901  .00031299  00000-0  12492-2 0  9999
2 63237  97.4135 236.7585 0009286  85.5859 274.6440 15.25065290 41347
TEVEL2-7
1 63238U 25052AE  25345.43699015  .00030676  00000-0  12300-2 0  9992
2 63238  97.4144 236.7465 0009411  85.6220 274.6093 15.24915144 41343
TEVEL2-8
1 63239U 25052AF  25346.23004420  .00023035  00000-0  92483-3 0  9994
2 63239  97.4141 237.5163 0009500  83.8535 276.3785 15.24928406 41468
HYDRA-W
1 63490U 25052BL  25345.66319095  .00086170  00000-0  20546-2 0  9995
2 63490  97.4064 239.4275 0011651  74.8996 285.3538 15.41179517 41553
HADES-ICM (SO-125)
1 63492U 25052BN  25346.17666786  .00088668  00000-0  22444-2 0  9999
2 63492  97.4073 239.6826 0011665  75.9614 284.2927 15.39348021 41615
Dragonfly
1 65729U 98067XH  25345.97553572  .00191153  00000-0  14274-2 0  9991
2 65729  51.6238 139.6768 0006728 272.7665  87.2563 15.71570854 13046
RSP-03
1 65732U 98067XL  25345.46479526  .00197326  00000-0  16947-2 0  9992
2 65732  51.6260 143.0256 0005826 242.1359 117.9048 15.68184189 12962
GHS-01
1 65733U 98067XM  25345.73819417  .00233700  00000-0  15475-2 0  9992
2 65733  51.6266 140.3500 0007045 274.7166  85.3028 15.74255219 13027
BOTAN
1 65942U 98067XP  25346.14280537  .00130896  00000-0  14132-2 0  9996
2 65942  51.6278 142.3097 0003211 233.7514 126.3183 15.62701818  9771
BEE-1000
1 66650U 25274A   25346.28287228  .00003219  00000-0  32557-3 0  9992
2 66650  97.7386 273.4789 0010367 253.1002 106.9080 14.91659686  2332
SPIRONE
1 66657U 25274H   25346.27497077  .00005202  00000-0  51223-3 0  9998
2 66657  97.7381 273.4886 0010736 277.7668  82.2332 14.92448984  2336
K-HERO
1 66660U 25274L   25346.26964583  .00004432  00000-0  43164-3 0  9991
2 66660  97.7386 273.4968 0012690 282.6220  77.3580 14.92954618  2332
SNUGLITE-III DURI
1 66661U 25274M   25346.26808748  .00004078  00000-0  39614-3 0  9993
2 66661  97.7383 273.4984 0013390 283.7160  76.2569 14.93093703  2336
SilverSat
1 66909U 98067XV  25345.82414535  .00082864  00000-0  13718-2 0  9991
2 66909  51.6300 146.9260 0004556 222.0234 138.0406 15.51450033  1471
CEVROSAT1
1 98526U 25248E   25313.13142326  .00000000  00000-0  19360-3 0    02
2 98526  45.4084 218.4764 0001315 254.8982 242.1062 15.17981583    02
